Time,TemperatureF,DewpointF,PressureIn,WindDirection,WindDirectionDegrees,WindSpeedMPH,WindSpeedGustMPH,Humidity,HourlyPrecipIn,Conditions,Clouds,dailyrainin,SolarRadiationWatts/m^2,SoftwareType,DateUTC
2013-03-23 00:02:00,37.0,14.0,-100.00,West,280,1.0,6.0,39,0.00,,,0.00,0.000000,,2013-03-23 04:02:00,
2013-03-23 00:33:00,37.0,15.0,-100.00,West,273,2.0,5.0,40,0.00,,,0.00,0.000000,,2013-03-23 04:33:00,
2013-03-23 00:43:00,37.0,15.0,-100.00,West,273,2.0,5.0,40,0.00,,,0.00,0.000000,,2013-03-23 04:43:00,
2013-03-23 00:53:00,37.0,15.0,-100.00,West,273,2.0,5.0,40,0.00,,,0.00,0.000000,,2013-03-23 04:53:00,
2013-03-23 01:02:00,37.0,15.0,-100.00,West,273,2.0,5.0,40,0.00,,,0.00,0.000000,,2013-03-23 05:02:00,
2013-03-23 01:42:00,36.0,15.0,-100.00,WNW,294,2.0,4.0,41,0.00,,,0.00,0.000000,,2013-03-23 05:42:00,
2013-03-23 01:52:00,36.0,15.0,-100.00,WNW,294,2.0,4.0,41,0.00,,,0.00,0.000000,,2013-03-23 05:52:00,
2013-03-23 02:02:00,36.0,15.0,-100.00,WNW,294,2.0,4.0,41,0.00,,,0.00,0.000000,,2013-03-23 06:02:00,
2013-03-23 02:42:00,36.0,15.0,-100.00,NNE,22,1.0,3.0,42,0.00,,,0.00,0.000000,,2013-03-23 06:42:00,
2013-03-23 02:52:00,36.0,15.0,-100.00,NNE,22,1.0,3.0,42,0.00,,,0.00,0.000000,,2013-03-23 06:52:00,
2013-03-23 03:02:00,36.0,15.0,-100.00,NNE,22,1.0,3.0,42,0.00,,,0.00,0.000000,,2013-03-23 07:02:00,
2013-03-23 03:33:00,36.0,16.0,-100.00,North,355,1.0,3.0,43,0.00,,,0.00,0.000000,,2013-03-23 07:33:00,
2013-03-23 03:42:00,36.0,16.0,-100.00,North,355,1.0,3.0,43,0.00,,,0.00,0.000000,,2013-03-23 07:42:00,
2013-03-23 03:52:00,36.0,16.0,-100.00,North,355,1.0,3.0,43,0.00,,,0.00,0.000000,,2013-03-23 07:52:00,
2013-03-23 04:02:00,36.0,16.0,-100.00,North,355,1.0,3.0,43,0.00,,,0.00,0.000000,,2013-03-23 08:02:00,
2013-03-23 04:32:00,36.0,17.0,-100.00,North,350,0.0,2.0,45,0.00,,,-99.99,0.000000,,2013-03-23 08:32:00,
2013-03-23 04:42:00,36.0,17.0,-100.00,North,350,0.0,2.0,45,0.00,,,-99.99,0.000000,,2013-03-23 08:42:00,
2013-03-23 04:52:00,36.0,17.0,-100.00,North,350,0.0,2.0,45,0.00,,,-99.99,0.000000,,2013-03-23 08:52:00,
2013-03-23 05:02:00,36.0,17.0,-100.00,North,350,0.0,2.0,45,0.00,,,-99.99,0.000000,,2013-03-23 09:02:00,
2013-03-23 05:33:00,36.0,17.0,-100.00,ENE,66,1.0,2.0,46,0.00,,,0.00,0.000000,,2013-03-23 09:33:00,
2013-03-23 05:43:00,36.0,17.0,-100.00,ENE,66,1.0,2.0,46,0.00,,,0.00,0.000000,,2013-03-23 09:43:00,
2013-03-23 05:53:00,36.0,17.0,-100.00,ENE,66,1.0,2.0,46,0.00,,,0.00,0.000000,,2013-03-23 09:53:00,
2013-03-23 06:03:00,36.0,17.0,-100.00,ENE,66,1.0,2.0,46,0.00,,,0.00,0.000000,,2013-03-23 10:03:00,
2013-03-23 06:34:00,35.0,17.0,-100.00,East,89,0.0,3.0,48,0.00,,,0.00,0.000000,,2013-03-23 10:34:00,
2013-03-23 06:43:00,35.0,17.0,-100.00,East,89,0.0,3.0,48,0.00,,,0.00,0.000000,,2013-03-23 10:43:00,
2013-03-23 06:52:00,35.0,17.0,-100.00,East,89,0.0,3.0,48,0.00,,,0.00,0.000000,,2013-03-23 10:52:00,
2013-03-23 07:03:00,35.0,17.0,-100.00,East,89,0.0,3.0,48,0.00,,,0.00,0.000000,,2013-03-23 11:03:00,
2013-03-23 07:32:00,36.0,19.0,-100.00,ESE,105,0.0,3.0,49,0.00,,,0.00,0.000000,,2013-03-23 11:32:00,
2013-03-23 07:42:00,36.0,19.0,-100.00,ESE,105,0.0,3.0,49,0.00,,,0.00,0.000000,,2013-03-23 11:42:00,
2013-03-23 07:52:00,36.0,19.0,-100.00,ESE,105,0.0,3.0,49,0.00,,,0.00,0.000000,,2013-03-23 11:52:00,
2013-03-23 08:02:00,36.0,19.0,-100.00,ESE,105,0.0,3.0,49,0.00,,,0.00,0.000000,,2013-03-23 12:02:00,
2013-03-23 08:43:00,36.0,21.0,-100.00,East,97,2.0,4.0,53,0.00,,,0.00,1.000000,,2013-03-23 12:43:00,
2013-03-23 08:53:00,36.0,21.0,-100.00,East,97,2.0,4.0,53,0.00,,,0.00,1.000000,,2013-03-23 12:53:00,
2013-03-23 09:03:00,36.0,21.0,-100.00,East,97,2.0,4.0,53,0.00,,,0.00,1.000000,,2013-03-23 13:03:00,
2013-03-23 09:33:00,37.0,22.0,-100.00,East,88,2.0,5.0,55,0.00,,,0.00,21.000000,,2013-03-23 13:33:00,
2013-03-23 09:43:00,37.0,22.0,-100.00,East,88,2.0,5.0,55,0.00,,,0.00,21.000000,,2013-03-23 13:43:00,
2013-03-23 09:53:00,37.0,22.0,-100.00,East,88,2.0,5.0,55,0.00,,,0.00,21.000000,,2013-03-23 13:53:00,
2013-03-23 10:03:00,37.0,22.0,-100.00,East,88,2.0,5.0,55,0.00,,,0.00,21.000000,,2013-03-23 14:03:00,
2013-03-23 10:33:00,38.0,21.0,-100.00,SE,127,2.0,7.0,49,0.00,,,0.00,76.000000,,2013-03-23 14:33:00,
2013-03-23 10:43:00,38.0,21.0,-100.00,SE,127,2.0,7.0,49,0.00,,,0.00,76.000000,,2013-03-23 14:43:00,
2013-03-23 10:53:00,38.0,21.0,-100.00,SE,127,2.0,7.0,49,0.00,,,0.00,76.000000,,2013-03-23 14:53:00,
2013-03-23 11:03:00,38.0,21.0,-100.00,SE,127,2.0,7.0,49,0.00,,,0.00,76.000000,,2013-03-23 15:03:00,
2013-03-23 11:34:00,43.0,20.0,-100.00,ESE,112,4.0,9.0,40,0.00,,,0.00,311.000000,,2013-03-23 15:34:00,
2013-03-23 11:44:00,43.0,20.0,-100.00,ESE,112,4.0,9.0,40,0.00,,,0.00,311.000000,,2013-03-23 15:44:00,
2013-03-23 11:53:00,43.0,20.0,-100.00,ESE,112,4.0,9.0,40,0.00,,,0.00,311.000000,,2013-03-23 15:53:00,
2013-03-23 12:03:00,43.0,20.0,-100.00,ESE,112,4.0,9.0,40,0.00,,,0.00,311.000000,,2013-03-23 16:03:00,
2013-03-23 12:33:00,48.0,19.0,-100.00,ESE,118,3.0,10.0,31,0.00,,,0.00,644.000000,,2013-03-23 16:33:00,
2013-03-23 12:43:00,48.0,19.0,-100.00,ESE,118,3.0,10.0,31,0.00,,,0.00,644.000000,,2013-03-23 16:43:00,
2013-03-23 12:53:00,48.0,19.0,-100.00,ESE,118,3.0,10.0,31,0.00,,,0.00,644.000000,,2013-03-23 16:53:00,
2013-03-23 13:02:00,48.0,19.0,-100.00,ESE,118,3.0,10.0,31,0.00,,,0.00,644.000000,,2013-03-23 17:02:00,
2013-03-23 13:33:00,50.0,17.0,-100.00,East,97,4.0,11.0,27,0.00,,,0.00,729.000000,,2013-03-23 17:33:00,
2013-03-23 13:43:00,50.0,17.0,-100.00,East,97,4.0,11.0,27,0.00,,,0.00,729.000000,,2013-03-23 17:43:00,
2013-03-23 13:53:00,50.0,17.0,-100.00,East,97,4.0,11.0,27,0.00,,,0.00,729.000000,,2013-03-23 17:53:00,
2013-03-23 14:03:00,50.0,17.0,-100.00,East,97,4.0,11.0,27,0.00,,,0.00,729.000000,,2013-03-23 18:03:00,
2013-03-23 14:43:00,51.0,17.0,-100.00,ENE,72,4.0,10.0,26,0.00,,,0.00,733.000000,,2013-03-23 18:43:00,
2013-03-23 14:53:00,51.0,17.0,-100.00,ENE,72,4.0,10.0,26,0.00,,,0.00,733.000000,,2013-03-23 18:53:00,
2013-03-23 15:03:00,51.0,17.0,-100.00,ENE,72,4.0,10.0,26,0.00,,,0.00,733.000000,,2013-03-23 19:03:00,
2013-03-23 15:43:00,53.0,18.0,-100.00,ENE,66,4.0,13.0,25,0.00,,,0.00,760.000000,,2013-03-23 19:43:00,
2013-03-23 15:53:00,53.0,18.0,-100.00,ENE,66,4.0,13.0,25,0.00,,,0.00,760.000000,,2013-03-23 19:53:00,
2013-03-23 16:03:00,53.0,18.0,-100.00,ENE,66,4.0,13.0,25,0.00,,,0.00,760.000000,,2013-03-23 20:03:00,
2013-03-23 16:43:00,54.0,20.0,-100.00,SE,134,4.0,13.0,26,0.00,,,0.00,707.000000,,2013-03-23 20:43:00,
2013-03-23 16:53:00,54.0,20.0,-100.00,SE,134,4.0,13.0,26,0.00,,,0.00,707.000000,,2013-03-23 20:53:00,
2013-03-23 17:02:00,54.0,20.0,-100.00,SE,134,4.0,13.0,26,0.00,,,0.00,707.000000,,2013-03-23 21:02:00,
2013-03-23 17:33:00,54.0,21.0,-100.00,East,99,4.0,12.0,27,0.00,,,0.00,538.000000,,2013-03-23 21:33:00,
2013-03-23 17:43:00,54.0,21.0,-100.00,East,99,4.0,12.0,27,0.00,,,0.00,538.000000,,2013-03-23 21:43:00,
2013-03-23 17:54:00,54.0,21.0,-100.00,East,99,4.0,12.0,27,0.00,,,0.00,538.000000,,2013-03-23 21:54:00,
2013-03-23 18:03:00,54.0,21.0,-100.00,East,99,4.0,12.0,27,0.00,,,0.00,538.000000,,2013-03-23 22:03:00,
2013-03-23 18:33:00,54.0,21.0,-100.00,East,88,4.0,13.0,27,0.00,,,0.00,345.000000,,2013-03-23 22:33:00,
2013-03-23 18:43:00,54.0,21.0,-100.00,East,88,4.0,13.0,27,0.00,,,0.00,345.000000,,2013-03-23 22:43:00,
2013-03-23 18:53:00,54.0,21.0,-100.00,East,88,4.0,13.0,27,0.00,,,0.00,345.000000,,2013-03-23 22:53:00,
2013-03-23 19:02:00,54.0,21.0,-100.00,East,88,4.0,13.0,27,0.00,,,0.00,345.000000,,2013-03-23 23:02:00,
2013-03-23 19:33:00,51.0,20.0,-100.00,ENE,70,4.0,8.0,29,0.00,,,0.00,187.000000,,2013-03-23 23:33:00,
2013-03-23 19:43:00,51.0,20.0,-100.00,ENE,70,4.0,8.0,29,0.00,,,0.00,187.000000,,2013-03-23 23:43:00,
2013-03-23 19:52:00,51.0,20.0,-100.00,ENE,70,4.0,8.0,29,0.00,,,0.00,187.000000,,2013-03-23 23:52:00,
2013-03-23 20:02:00,51.0,20.0,-100.00,ENE,70,4.0,8.0,29,0.00,,,0.00,187.000000,,2013-03-24 00:02:00,
2013-03-23 21:33:00,44.0,22.0,-100.00,ENE,76,4.0,10.0,42,-99.99,,,0.00,0.000000,,2013-03-24 01:33:00,
2013-03-23 21:43:00,44.0,22.0,-100.00,ENE,76,4.0,10.0,42,-99.99,,,0.00,0.000000,,2013-03-24 01:43:00,
2013-03-23 21:53:00,44.0,22.0,-100.00,ENE,76,4.0,10.0,42,-99.99,,,0.00,0.000000,,2013-03-24 01:53:00,
2013-03-23 22:03:00,44.0,22.0,-100.00,ENE,76,4.0,10.0,42,-99.99,,,0.00,0.000000,,2013-03-24 02:03:00,
2013-03-23 22:43:00,43.0,23.0,-100.00,ENE,77,3.0,9.0,45,0.00,,,0.00,0.000000,,2013-03-24 02:43:00,
2013-03-23 22:52:00,43.0,23.0,-100.00,ENE,77,3.0,9.0,45,0.00,,,0.00,0.000000,,2013-03-24 02:52:00,
2013-03-23 23:02:00,43.0,23.0,-100.00,ENE,77,3.0,9.0,45,0.00,,,0.00,0.000000,,2013-03-24 03:02:00,
2013-03-23 23:33:00,42.0,22.0,-100.00,East,85,3.0,7.0,44,0.00,,,0.00,0.000000,,2013-03-24 03:33:00,
2013-03-23 23:43:00,42.0,22.0,-100.00,East,85,3.0,7.0,44,0.00,,,0.00,0.000000,,2013-03-24 03:43:00,
2013-03-23 23:53:00,42.0,22.0,-100.00,East,85,3.0,7.0,44,0.00,,,0.00,0.000000,,2013-03-24 03:53:00,